Weather History for Bradford, PA

Change the Weather History Date:

Friday, June 14, 2013

  Actual Average Record
Temperature  
Mean Temperature 60 °F -  
Max Temperature 70 °F 74 °F 87 °F (1988)
Min Temperature 51 °F 51 °F 31 °F (1979)
Degree Days  
Heating Degree Days 5    
Growing Degree Days 10 (Base 50)    
Moisture  
Dew Point 51 °F    
Average Humidity 76    
Maximum Humidity 93    
Minimum Humidity 49    
Precipitation  
Precipitation 0.00 in - - ()
Sea Level Pressure  
Sea Level Pressure 29.91 in    
Wind  
Wind Speed 7 mph (NNW)    
Max Wind Speed 15 mph    
Max Gust Speed 24 mph    
Visibility 10 miles    
Events      
Averages and records for this station are not official NWS values.
T = Trace of Precipitation, MM = Missing Value Source: NWS Daily Summary

Daily Weather History Graph

Daily Weather History Graph

Search for Another Location

Airport:

Trip Planner

Search our weather history database for the weather conditions in past years. The results will help you decide how hot, cold, wet, or windy it might be!

Date:

Astronomy

Jun. 14, 2013 Rise Set
Actual Time 5:39 AM EDT 8:50 PM EDT
Civil Twilight 5:04 AM EDT 9:25 PM EDT
Nautical Twilight 4:20 AM EDT 10:09 PM EDT
Astronomical Twilight 3:28 AM EDT 11:02 PM EDT
Moon 11:16 AM EDT (6/14) No Moon Set
Length of Visible Light 16h 20m
Length of Day
15h 11m
Waxing Crescent, 30% of the Moon is Illuminated
Jun 14
Waxing Crescent
Jun 16
First Quarter
Jun 23
Full
Jun 30
Last Quarter
Jul 8
New

Hourly Weather History & Observations

Time (EDT) Temp. Dew Point Humidity Pressure Visibility Wind Dir Wind Speed Gust Speed Precip Events Conditions
12:53 AM 54.0 °F 48.9 °F 83% 29.78 in 10.0 mi North 4.6 mph - N/A   Mostly Cloudy
1:53 AM 53.1 °F 48.9 °F 86% 29.80 in 10.0 mi NNW 5.8 mph - N/A   Overcast
2:23 AM 53.1 °F 48.9 °F 86% 29.83 in 10.0 mi NW 9.2 mph - N/A   Overcast
2:53 AM 53.1 °F 48.9 °F 86% 29.81 in 10.0 mi NNW 5.8 mph - N/A   Overcast
3:33 AM 52.0 °F 48.9 °F 89% 29.83 in 10.0 mi NNW 6.9 mph - N/A   Scattered Clouds
3:53 AM 52.0 °F 48.9 °F 89% 29.82 in 10.0 mi NNW 9.2 mph - N/A   Scattered Clouds
4:53 AM 52.0 °F 48.9 °F 89% 29.83 in 10.0 mi NNW 8.1 mph - N/A   Partly Cloudy
5:11 AM 51.1 °F 48.9 °F 92% 29.84 in 10.0 mi NW 5.8 mph - N/A   Partly Cloudy
5:32 AM 52.0 °F 50.0 °F 93% 29.86 in 10.0 mi NW 3.5 mph - N/A   Mostly Cloudy
5:53 AM 54.0 °F 50.0 °F 86% 29.86 in 10.0 mi NW 5.8 mph - N/A   Overcast
6:30 AM 54.0 °F 51.1 °F 90% 29.88 in 10.0 mi North 5.8 mph - N/A   Overcast
6:53 AM 55.0 °F 51.1 °F 86% 29.88 in 10.0 mi North 3.5 mph - N/A   Overcast
7:08 AM 55.0 °F 51.1 °F 86% 29.89 in 10.0 mi NNW 5.8 mph - N/A   Overcast
7:22 AM 55.0 °F 51.1 °F 86% 29.89 in 10.0 mi NNW 4.6 mph - N/A   Overcast
7:38 AM 55.9 °F 52.0 °F 87% 29.89 in 10.0 mi NNW 6.9 mph - N/A   Overcast
7:45 AM 55.9 °F 52.0 °F 87% 29.90 in 10.0 mi NNW 5.8 mph - N/A   Overcast
7:53 AM 55.9 °F 52.0 °F 87% 29.88 in 10.0 mi North 4.6 mph - N/A   Overcast
8:32 AM 57.0 °F 52.0 °F 83% 29.91 in 10.0 mi North 8.1 mph - N/A   Overcast
9:07 AM 59.0 °F 51.1 °F 75% 29.92 in 10.0 mi North 8.1 mph - N/A   Scattered Clouds
10:28 AM 64.0 °F 53.1 °F 67% 29.94 in 10.0 mi WNW 10.4 mph - N/A   Mostly Cloudy
10:53 AM 64.0 °F 52.0 °F 65% 29.93 in 10.0 mi NNW 10.4 mph - N/A   Mostly Cloudy
11:03 AM 64.0 °F 52.0 °F 65% 29.96 in 10.0 mi NW 13.8 mph - N/A   Mostly Cloudy
11:53 AM 66.0 °F 52.0 °F 60% 29.94 in 10.0 mi NNW 11.5 mph - N/A   Mostly Cloudy
12:53 PM 68.0 °F 53.1 °F 59% 29.96 in 10.0 mi NNW 10.4 mph - N/A   Scattered Clouds
1:53 PM 68.0 °F 52.0 °F 56% 29.97 in 10.0 mi NNW 11.5 mph 19.6 mph N/A   Scattered Clouds
2:53 PM 68.0 °F 51.1 °F 55% 29.96 in 10.0 mi NNW 12.7 mph 20.7 mph N/A   Partly Cloudy
3:53 PM 69.1 °F 50.0 °F 51% 29.97 in 10.0 mi NW 15.0 mph 24.2 mph N/A   Clear
4:53 PM 69.1 °F 48.9 °F 49% 29.97 in 10.0 mi North 15.0 mph - N/A   Clear
5:53 PM 66.0 °F 48.9 °F 54% 29.97 in 10.0 mi NNW 15.0 mph 19.6 mph N/A   Clear
6:53 PM 66.9 °F 48.9 °F 52% 29.97 in 10.0 mi NW 12.7 mph - N/A   Partly Cloudy
7:53 PM 64.9 °F 50.0 °F 58% 29.99 in 10.0 mi NW 9.2 mph - N/A   Partly Cloudy
8:53 PM 60.1 °F 52.0 °F 75% 30.00 in 10.0 mi NW 4.6 mph - N/A   Unknown
10:53 PM 55.9 °F 52.0 °F 87% 30.03 in 10.0 mi WNW 3.5 mph - N/A   Clear
11:53 PM 53.1 °F 50.0 °F 89% 30.04 in 8.0 mi Calm Calm - N/A   Clear